[[{"header":{"parameterUnit":"m.s-1","parameterCategory":1,"la1":30.2991,"la2":30.254,"lo1":-89.0895,"lo2":-89.0444,"dy":0.0017,"dx":0.0017,"nx":28,"ny":28,"refTime":"2025-07-05T03:00:00:Z","depth":0,"parameterNumber":2,"parameterNumberName":"U-component_of_WINDS"},"data":[0,0,0,0,0,0,0,0,0,0,0,0,0,0,0,0,0,0,0,0,0,0,0,0,0,0,0,0,0,0,0,0,0,0,0,0,0,0,0,0,0,0,0,0,0,0,0,0,0,0,0,0,0,0,0,0,0,0,2.6727,2.673,0,2.7037,2.7041,2.7044,2.714,2.7138,2.7137,2.7135,2.7453,2.7463,2.7473,0,0,0,0,0,0,0,0,0,0,0,0,0,2.6213,2.6222,2.6726,2.673,2.6734,2.7036,2.7041,2.7045,2.714,2.7138,2.7136,2.7135,2.745,2.7462,2.7473,0,0,0,0,0,0,0,0,0,0,0,0,0,2.6471,2.6225,2.6726,2.6818,2.6829,2.7036,2.7041,2.7046,2.7141,2.7138,2.7136,2.7134,2.7446,2.746,2.7475,2.7612,0,0,2.752,2.7527,0,0,0,0,0,0,0,0,2.6456,2.649,2.6801,2.6812,2.6825,2.7047,2.6977,2.7236,2.7141,2.7022,2.7135,2.7133,2.732,2.7345,2.7408,2.7627,2.764,2.7522,2.7531,2.7537,2.7541,0,0,0,0,0,0,0,2.6438,2.6477,2.6849,2.6805,2.682,2.6843,2.6877,2.7026,2.718,2.7033,2.704,2.7076,2.7326,2.7394,2.7416,2.7645,2.7521,2.7534,2.7544,2.7549,2.7989,2.7991,0,0,0,0,0,0,2.6405,2.6462,2.6839,2.6859,2.6631,2.6854,2.6892,2.6978,2.7179,2.7207,2.7077,2.7079,2.737,2.7399,2.7428,2.76,2.7537,2.7551,2.7559,2.7986,2.7989,2.7992,0,0,0,0,0,0,2.6394,2.6438,2.6827,2.6662,2.6714,2.6866,2.6961,2.6986,2.7053,2.7213,2.724,2.7118,2.7369,2.7407,2.7565,2.7612,2.7557,2.7571,2.7983,2.7987,2.7991,2.7946,0,0,0,0,0,0,2.6379,2.6433,2.6488,2.6663,2.6722,2.6959,2.6964,2.6993,2.7079,2.7084,2.7258,2.7285,2.737,2.7542,2.758,2.7632,2.7582,2.7979,2.7985,2.799,2.7944,2.7948,2.7951,0,0,0,0,0,2.636,2.6463,2.649,2.6535,2.6793,2.6962,2.6996,2.7092,2.7082,2.7137,2.7239,2.7279,2.7601,2.7558,2.7601,2.7658,2.7977,2.7983,2.7989,2.7942,2.7947,2.7951,0,0,0,0,0,0,2.629,2.6488,2.652,2.6683,2.6804,2.6978,2.7051,2.7094,2.7222,2.7221,2.7334,2.7373,2.7522,2.7606,2.7554,2.7799,2.779,2.7805,2.7739,2.7746,2.7749,2.7726,2.7595,0,0,0,0,0,2.6293,2.6414,2.658,2.6708,2.6767,2.6898,2.6975,2.7038,2.7169,2.7221,2.7335,2.746,2.7589,2.7672,2.78,2.7956,2.7994,2.8016,2.802,2.8022,2.8034,2.8121,2.8132,2.8013,2.8013,2.8013,0,0,2.6302,2.6425,2.6494,2.6697,2.6799,2.692,2.6941,2.7069,2.7161,2.7241,2.7397,2.7484,2.7631,2.7787,2.7862,2.7862,2.8075,2.803,2.8031,2.8042,2.8128,2.8139,2.8149,2.8017,2.8017,2.8016,0,0,2.6379,2.6485,2.6602,2.6703,2.6857,2.6943,2.697,2.7137,2.7198,2.7355,2.7417,2.7527,2.7748,2.7849,2.793,2.8042,2.8084,2.8081,2.8101,2.8184,2.8194,2.8202,2.8242,2.8254,2.8092,2.8092,2.8092,0,2.637,2.6557,2.6656,2.6782,2.6868,2.6945,2.7064,2.7157,2.7344,2.7402,2.7398,2.7675,2.778,2.7961,2.7987,2.8051,2.8085,2.8062,2.8184,2.8194,2.8204,2.8242,2.8257,2.809,2.809,2.8091,2.8091,0,2.6538,2.6666,2.6742,2.692,2.7015,2.7136,2.7252,2.7337,2.739,2.7476,2.7634,2.7762,2.7916,2.7963,2.8018,2.8151,2.8146,2.8162,2.8155,2.8212,2.825,2.8266,2.8088,2.8089,2.8089,2.809,0,0,2.6582,2.6812,2.6838,2.6919,2.7093,2.7193,2.7316,2.7467,2.7536,2.7662,2.7767,2.7951,2.7966,2.8057,2.8123,2.8196,2.8275,2.8203,2.8208,2.8211,2.8428,2.8415,2.8431,2.8303,2.8306,2.8309,2.8416,0,2.6681,2.6906,2.6997,2.7179,2.7297,2.737,2.7478,2.7595,2.7678,2.779,2.7881,2.8008,2.8019,2.8074,2.815,2.8249,2.832,2.8243,2.8402,2.8406,2.8362,2.8451,2.8438,2.8533,2.8431,2.8434,2.8436,0,2.6828,2.6954,2.7146,2.7304,2.7357,2.7452,2.7596,2.7702,2.7836,2.7891,2.799,2.8052,2.8183,2.8166,2.8347,2.8293,2.8363,2.8421,2.8427,2.8446,2.8424,2.8471,2.8566,2.8579,2.846,2.8458,2.8457,0,2.684,2.7057,2.72,2.7267,2.7455,2.7519,2.76,2.7732,2.7815,2.7941,2.7996,2.8134,2.821,2.8316,2.8412,2.8392,2.8584,2.8576,2.8632,2.863,2.867,2.8666,2.8776,2.8715,2.8715,2.8714,2.8714,0,2.6941,2.7056,2.7208,2.7295,2.7425,2.7529,2.7654,2.774,2.7856,2.7961,2.8033,2.813,2.8252,2.8364,2.844,2.8577,2.8611,2.8658,2.8677,2.8652,2.8646,2.87,2.8695,2.8718,2.8717,2.8717,2.8716,0,2.6977,2.7083,2.7243,2.7407,2.745,2.7539,2.7678,2.7766,2.785,2.7982,2.8019,2.8152,2.8287,2.8394,2.857,2.8622,2.8766,2.8787,2.872,2.873,2.878,2.8774,2.8929,2.8954,2.8875,2.8876,2.8876,0,2.7034,2.7124,2.7296,2.7372,2.7452,2.7572,2.7657,2.7762,2.7847,2.8005,2.8073,2.8213,2.8331,2.8543,2.8655,2.879,2.8814,2.8859,2.8835,2.8806,2.8814,2.8807,2.8816,2.8862,2.8862,2.8863,2.8863,0,2.7125,2.7172,2.7293,2.7431,2.753,2.7644,2.7759,2.7816,2.7941,2.8033,2.8172,2.8263,2.8443,2.858,2.8726,2.8809,2.8856,2.8869,2.8889,2.8865,2.8822,2.8845,2.8728,2.8866,2.8865,2.8865,2.8865,2.8865,2.7174,2.7256,2.7389,2.752,2.7617,2.7722,2.7812,2.7907,2.8025,2.8179,2.8233,2.8375,2.8504,2.8705,2.8788,2.8901,2.8904,2.8933,2.894,2.8946,2.8942,2.8803,2.8928,2.8928,2.8928,2.8928,2.8928,0,2.7267,2.7356,2.7475,2.7633,2.7735,2.777,2.7899,2.7982,2.8106,2.8223,2.8337,2.8495,2.8628,2.8749,2.8888,2.8954,2.8979,2.8987,2.8983,2.9001,2.8932,2.8901,2.8965,2.8965,2.8964,2.8964,2.8964,2.8964,2.7328,2.7468,2.7531,2.7719,2.7808,2.7948,2.8018,2.8115,2.8208,2.8381,2.8492,2.857,2.8689,2.8836,2.8959,2.8991,2.9039,2.9041,2.9078,2.9012,2.9006,2.9002,2.8973,2.905,2.905,2.9138,2.9139,2.9139]},{"header":{"parameterUnit":"m.s-1","parameterCategory":1,"la1":30.2991,"la2":30.254,"lo1":-89.0895,"lo2":-89.0444,"dy":0.0017,"dx":0.0017,"nx":28,"ny":28,"refTime":"2025-07-05T03:00:00:Z","depth":0,"parameterNumber":3,"parameterNumberName":"V-component_of_WINDS"},"data":[0,0,0,0,0,0,0,0,0,0,0,0,0,0,0,0,0,0,0,0,0,0,0,0,0,0,0,0,0,0,0,0,0,0,0,0,0,0,0,0,0,0,0,0,0,0,0,0,0,0,0,0,0,0,0,0,0,0,2.9401,2.94,0,2.9376,2.9376,2.9376,2.9336,2.9336,2.9335,2.9334,2.9309,2.9309,2.9309,0,0,0,0,0,0,0,0,0,0,0,0,0,2.9412,2.9412,2.9401,2.94,2.94,2.9376,2.9376,2.9376,2.9336,2.9336,2.9335,2.9334,2.9309,2.9309,2.9309,0,0,0,0,0,0,0,0,0,0,0,0,0,2.9399,2.9412,2.9401,2.9378,2.9375,2.9376,2.9376,2.9376,2.9337,2.9336,2.9334,2.9333,2.9309,2.9309,2.9309,2.9331,0,0,2.9309,2.9309,0,0,0,0,0,0,0,0,2.94,2.9399,2.9381,2.9379,2.9377,2.9358,2.9371,2.936,2.9337,2.9351,2.9334,2.9333,2.9326,2.9325,2.9323,2.9329,2.9328,2.9309,2.9309,2.9309,2.9309,0,0,0,0,0,0,0,2.9401,2.94,2.9391,2.9381,2.9378,2.9368,2.9365,2.9368,2.9345,2.935,2.9347,2.9345,2.9325,2.9323,2.9322,2.9328,2.9309,2.9309,2.9309,2.9309,2.9348,2.9349,0,0,0,0,0,0,2.9405,2.9401,2.9392,2.939,2.9386,2.9369,2.9365,2.9365,2.9345,2.9341,2.9346,2.9343,2.9323,2.9322,2.9321,2.9342,2.9309,2.9309,2.9309,2.9347,2.9348,2.9349,0,0,0,0,0,0,2.9406,2.9405,2.9393,2.9395,2.9392,2.937,2.937,2.9365,2.9363,2.9342,2.9337,2.9348,2.9322,2.9321,2.9328,2.9341,2.9309,2.9309,2.9345,2.9347,2.9348,2.9386,0,0,0,0,0,0,2.9406,2.9405,2.9414,2.9395,2.9392,2.9401,2.9371,2.9366,2.9363,2.936,2.9343,2.9339,2.9321,2.9328,2.9328,2.934,2.9309,2.9344,2.9346,2.9348,2.9384,2.9389,2.9393,0,0,0,0,0,2.9407,2.9426,2.9414,2.9414,2.9403,2.9402,2.94,2.938,2.9365,2.9372,2.9358,2.9339,2.934,2.9329,2.9328,2.9341,2.9343,2.9346,2.9348,2.9382,2.9388,2.9393,0,0,0,0,0,0,2.9447,2.9423,2.941,2.9424,2.9415,2.9395,2.9404,2.9388,2.9383,2.9379,2.9354,2.9351,2.936,2.9352,2.934,2.9359,2.9338,2.9341,2.9364,2.937,2.9375,2.9376,2.9309,0,0,0,0,0,2.9458,2.946,2.9438,2.9453,2.9449,2.9428,2.9426,2.9411,2.9401,2.9397,2.9384,2.9374,2.9371,2.9371,2.9368,2.9383,2.9377,2.9391,2.9396,2.94,2.9401,2.9406,2.9411,2.9357,2.9357,2.9357,0,0,2.948,2.9467,2.947,2.9461,2.9452,2.9453,2.9425,2.9428,2.9428,2.9398,2.9402,2.9392,2.938,2.939,2.9394,2.9383,2.9415,2.9403,2.9406,2.9406,2.9409,2.9414,2.9419,2.9358,2.9358,2.9358,0,0,2.952,2.9511,2.9521,2.9512,2.9499,2.9484,2.9487,2.9469,2.946,2.9465,2.9441,2.9441,2.9438,2.9429,2.9425,2.9459,2.9441,2.9459,2.9483,2.9488,2.9492,2.9496,2.9506,2.951,2.9461,2.9461,2.9461,0,2.9548,2.955,2.9528,2.9532,2.9527,2.9499,2.9508,2.9501,2.9487,2.9485,2.9473,2.9466,2.9457,2.9463,2.9471,2.9469,2.9469,2.946,2.9494,2.9497,2.95,2.9509,2.9513,2.9463,2.9463,2.9463,2.9463,0,2.9584,2.9585,2.9595,2.9581,2.9578,2.9585,2.9563,2.9562,2.9547,2.9533,2.9537,2.9524,2.9516,2.9517,2.9503,2.9521,2.9514,2.9498,2.9477,2.9508,2.9516,2.9519,2.9466,2.9466,2.9465,2.9464,0,0,2.9649,2.9622,2.9626,2.9618,2.9601,2.9601,2.9605,2.9597,2.9596,2.9588,2.9589,2.9587,2.9571,2.9566,2.955,2.9555,2.9579,2.9538,2.9537,2.9544,2.9595,2.9606,2.961,2.9568,2.9568,2.9569,2.9595,0,2.9684,2.9689,2.9669,2.9679,2.9678,2.9651,2.9654,2.9643,2.9631,2.9627,2.9613,2.961,2.9592,2.9588,2.9591,2.9576,2.9589,2.9574,2.9567,2.9567,2.9569,2.9615,2.9626,2.9652,2.9599,2.9599,2.96,0,2.9725,2.9717,2.9727,2.9707,2.9706,2.9709,2.9699,2.9697,2.9683,2.9673,2.9666,2.9648,2.9649,2.963,2.963,2.962,2.9616,2.9608,2.9609,2.9606,2.9584,2.9611,2.966,2.9663,2.9605,2.9604,2.9604,0,2.9768,2.976,2.9764,2.9759,2.9736,2.9739,2.9729,2.9715,2.9711,2.9702,2.9698,2.969,2.9685,2.9679,2.9658,2.9646,2.966,2.9639,2.965,2.965,2.9653,2.9653,2.97,2.9654,2.9654,2.9654,2.9654,0,2.9807,2.9814,2.9783,2.9785,2.9791,2.9768,2.9774,2.9762,2.9749,2.9747,2.9724,2.9723,2.9697,2.9693,2.9677,2.9678,2.9676,2.9667,2.9662,2.9668,2.9669,2.9664,2.9661,2.9655,2.9655,2.9654,2.9654,0,2.9855,2.9836,2.9838,2.9816,2.981,2.9815,2.9796,2.9796,2.9782,2.978,2.9778,2.9755,2.9749,2.9727,2.9717,2.9705,2.9711,2.9703,2.9715,2.9712,2.9723,2.9721,2.9767,2.9771,2.9725,2.9725,2.9726,0,2.9881,2.9885,2.9863,2.986,2.9851,2.9848,2.9843,2.9819,2.9815,2.9798,2.9801,2.9792,2.9784,2.9775,2.9757,2.9748,2.9738,2.9755,2.9737,2.9741,2.9736,2.9735,2.9734,2.9758,2.9759,2.976,2.976,0,2.9927,2.9917,2.9911,2.99,2.9895,2.9886,2.9876,2.9875,2.9848,2.9844,2.9837,2.9831,2.9818,2.981,2.9797,2.9787,2.9768,2.9766,2.9767,2.9772,2.9778,2.9773,2.9724,2.9765,2.9764,2.9764,2.9764,2.9763,2.9963,2.9965,2.9949,2.9942,2.9931,2.9922,2.992,2.9905,2.9899,2.9886,2.9873,2.9867,2.9851,2.9832,2.9823,2.9817,2.9807,2.981,2.9811,2.9811,2.9813,2.9781,2.9815,2.9815,2.9815,2.9814,2.9814,0,3.0006,2.9994,2.9988,2.9974,2.9968,2.9952,2.9939,2.9935,2.9929,2.9917,2.9909,2.9899,2.989,2.9871,2.986,2.9859,2.985,2.9856,2.9855,2.9853,2.9823,2.9822,2.9864,2.9864,2.9864,2.9864,2.9864,2.9864,3.0028,3.0029,3.0016,3.001,2.9998,2.9992,2.9985,2.9976,2.9965,2.9955,2.9948,2.9935,2.9919,2.9906,2.9896,2.9891,2.9887,2.9896,2.9887,2.986,2.9855,2.985,2.9849,2.9895,2.9896,2.9916,2.9916,2.9917]}]]